User: anonymous
Location: Unspecified
(0.0000°N, 0.0000°E)
Time: 07:22:07
(UTC+02:00)
Language:

Cosmos 1125 Rocket - Orbit

View from above orbital plane
View from above orbital plane
View from above satellite
View from above satellite

Ground track
Ground track

The orbit data is extracted from the following two-line orbital elements,

1 11511U 79078B   14211.79584477  .00000054  00000-0  27220-4 0  8478
2 11511 074.0370 089.2313 0016487 232.6799 192.5604 14.36431740827504
Epoch (UTC): 30 July 2014 19:06:00
Eccentricity: 0.0016487
inclination: 74.0370°
perigee height: 758 km
apogee height: 782 km
right ascension of ascending node: 89.2313°
argument of perigee: 232.6799°
revolutions per day: 14.36431740
mean anomaly at epoch: 192.5604°
orbit number at epoch: 82750

The dashed part of the orbit path shows where the satellite is in the earth's shadow,  

DLR